Content
SEND FEEDBACK

Daily
Averages
Monthly
Summary
United States of America

GRENADA, MISSISSIPPI


Home > North America > United States > Mississippi
Elevation: 63 meters     Latitude: 33 50N     Longitude: 089 47W

WEATHER
 
SELECT A DAY
Number of Records: 203,559;   Date Range: 1/1/95 - 7/27/14
 
SHARE

PRINT THIS DATA

[ ← Previous Day ]
WEATHER ALMANAC - 23 JANUARY, 2013
[ Next Day → ]
[ °F ]   °C
Weather ElementAverageHighLow
Temperature9.8 °C17.2 °C (2:53 pm)5.6 °C (1:53 am)
Dewpoint3.8 °C7.8 °C (2:53 pm)-2.2 °C (1:53 am)
Humidity67.6 %93 % (8:53 pm)54 % (2:53 pm)
Barometer1025.4 hPa1028.4 hPa (9:53 am)1023 hPa (7:53 pm)
Wind Speed7.7 km/h16.7 km/h (12:53 pm)
Weather ElementAverage
Visibility16.1 km
Wind DirectionSE (131.3 °)

Weather ElementTotal
Precipitation---
Heating Degree Days6.9 (Base 18.3)
Growing Degree Days1.4 (Base 10)
Averaged from 23 records on 23 January, 2013
WEATHER CONDITIONS BREAKOUT
WIND DIRECTION BREAKOUT
WEATHER BY HOUR - 23 JANUARY, 2013
[ °F ]   °C
Local TimeTemperatureDewpointHumidityBarometerVisibilityWind DirectionWind SpeedGust SpeedPrecipitationEventsConditions
1:53 AM5.6 °C-2.2 °C58 %1027.1 hPa16.1 kmEast (100°)7.4 km/hOvercast
2:53 AM5.6 °C-1.1 °C62 %1027.4 hPa16.1 kmNE (50°)5.6 km/hOvercast
3:53 AM5.6 °C-1.7 °C60 %1027.1 hPa16.1 kmEast (90°)7.4 km/hOvercast
4:53 AM5.6 °C-1.1 °C62 %1027.1 hPa16.1 kmEast (80°)7.4 km/hOvercast
5:53 AM6.1 °C-1.1 °C60 %1027.8 hPa16.1 kmEast (100°)5.6 km/hOvercast
6:53 AM6.1 °C0 °C65 %1027.8 hPa16.1 kmEast (90°)5.6 km/h0 mmOvercast
7:53 AM6.7 °C0 °C63 %1027.4 hPa16.1 kmCalmOvercast
8:53 AM7.2 °C1.1 °C65 %1027.8 hPa16.1 kmSouth (170°)7.4 km/hOvercast
9:53 AM8.9 °C1.7 °C61 %1028.4 hPa16.1 kmCalmOvercast
10:53 AM11.1 °C4.4 °C63 %1027.8 hPa16.1 kmSouth (180°)11.1 km/hOvercast
11:53 AM12.8 °C6.1 °C64 %1026.4 hPa16.1 kmSW (220°)11.1 km/hMostly Cloudy
12:53 PM15 °C7.2 °C60 %1025.1 hPa16.1 kmSW (220°)16.7 km/hMostly Cloudy
1:53 PM16.1 °C7.2 °C56 %1024.4 hPa16.1 kmWSW (240°)14.8 km/hMostly Cloudy
2:53 PM17.2 °C7.8 °C54 %1023.7 hPa16.1 kmSW (230°)11.1 km/hOvercast
3:53 PM17.2 °C7.8 °C54 %1023.7 hPa16.1 kmSW (220°)16.7 km/hClear
4:53 PM15 °C7.8 °C62 %1023.4 hPa16.1 kmSW (220°)13 km/hScattered Clouds
5:53 PM12.2 °C7.2 °C72 %1023.4 hPa16.1 kmSW (220°)5.6 km/hClear
6:53 PM10 °C6.7 °C80 %1023.4 hPa16.1 kmCalmScattered Clouds
7:53 PM7.8 °C6.1 °C89 %1023 hPa16.1 kmSouth (170°)5.6 km/hClear
8:53 PM7 °C6 °C93 %1023 hPa16.1 kmCalmClear
9:53 PM7.2 °C5 °C86 %1023.4 hPa16.1 kmCalmClear
10:53 PM9.4 °C6.7 °C83 %1023.4 hPa16.1 kmSSW (210°)13 km/hClear
11:53 PM9.4 °C6.7 °C83 %1023.4 hPa16.1 kmSSW (210°)13 km/hClear
Hourly data recorded from KGWO, located 0 kilometers away from Grenada, Mississippi







STORIES FROM OUR PARTNERS